User: anonymous   Login
Location: Charleston
(38.3500°N, 81.6330°W)
Time: 03:04:17
(UTC-05:00)
Language:

Cosmos 1812 Rocket - Orbit

View from above orbital plane
View from above orbital plane
View from above satellite
View from above satellite

Ground track
Ground track

The orbit data is extracted from the following two-line orbital elements,

1 17296U 87003B   16038.21813692  .00000191  00000-0  20392-4 0  9994
2 17296  82.5315 128.6409 0020423  58.4716 301.8490 14.83084372569604
Epoch (UTC): 07 February 2016 05:14:07
Eccentricity: 0.0020423
inclination: 82.5315°
perigee height: 605 km
apogee height: 634 km
right ascension of ascending node: 128.6409°
argument of perigee: 58.4716°
revolutions per day: 14.83084372
mean anomaly at epoch: 301.8490°
orbit number at epoch: 56960

The dashed part of the orbit path shows where the satellite is in the earth's shadow,  

DLR